Time,TemperatureF,DewpointF,PressureIn,WindDirection,WindDirectionDegrees,WindSpeedMPH,WindSpeedGustMPH,Humidity,HourlyPrecipIn,Conditions,Clouds,dailyrainin,SoftwareType,DateUTC
2014-01-08 00:00:00,78.0,72.4,29.70,NNW,347,1.0,6.0,83,0.00,,---,0.02,VWS V14.01,2014-01-07 16:00:00,
2014-01-08 00:34:00,78.0,72.4,29.68,NNW,348,5.0,7.0,83,0.00,,---,0.00,VWS V14.01,2014-01-07 16:34:00,
2014-01-08 00:39:00,78.0,72.4,29.68,North,11,4.0,7.0,83,0.00,,---,0.00,VWS V14.01,2014-01-07 16:39:00,
2014-01-08 00:44:00,78.2,72.6,29.68,NNE,29,1.0,7.0,83,0.00,,---,0.00,VWS V14.01,2014-01-07 16:44:00,
2014-01-08 00:49:00,78.1,72.5,29.67,NNW,333,2.0,7.0,83,0.00,,---,0.00,VWS V14.01,2014-01-07 16:49:00,
2014-01-08 00:54:00,78.1,72.5,29.67,West,259,2.0,7.0,83,0.00,,---,0.00,VWS V14.01,2014-01-07 16:54:00,
2014-01-08 00:59:00,78.1,72.5,29.67,WNW,302,4.0,7.0,83,0.00,,---,0.00,VWS V14.01,2014-01-07 16:59:00,
2014-01-08 01:04:00,78.1,72.5,29.67,NW,321,4.0,6.0,83,0.00,,---,0.00,VWS V14.01,2014-01-07 17:04:00,
2014-01-08 01:09:00,78.1,72.5,29.67,WNW,290,4.0,6.0,83,0.00,,---,0.00,VWS V14.01,2014-01-07 17:09:00,
2014-01-08 01:14:00,78.1,72.5,29.66,NW,310,2.0,6.0,83,0.00,,---,0.00,VWS V14.01,2014-01-07 17:14:00,
2014-01-08 01:19:00,78.0,72.4,29.66,WNW,295,0.0,6.0,83,0.00,,---,0.00,VWS V14.01,2014-01-07 17:19:00,
2014-01-08 01:24:00,77.9,72.3,29.66,NNE,16,3.0,7.0,83,0.00,,---,0.00,VWS V14.01,2014-01-07 17:24:00,
2014-01-08 01:29:00,77.7,72.5,29.66,NNE,23,3.0,7.0,84,0.00,,---,0.00,VWS V14.01,2014-01-07 17:29:00,
2014-01-08 01:34:00,77.7,72.5,29.66,NNE,23,6.0,6.0,84,0.00,,---,0.00,VWS V14.01,2014-01-07 17:34:00,
2014-01-08 01:39:00,77.8,72.2,29.65,North,356,3.0,6.0,83,0.00,,---,0.00,VWS V14.01,2014-01-07 17:39:00,
2014-01-08 01:44:00,77.8,72.2,29.65,NNE,14,4.0,6.0,83,0.00,,---,0.00,VWS V14.01,2014-01-07 17:44:00,
2014-01-08 01:49:00,77.7,72.1,29.65,NNE,13,4.0,6.0,83,0.00,,---,0.00,VWS V14.01,2014-01-07 17:49:00,
2014-01-08 01:54:00,77.5,71.9,29.65,NNE,23,3.0,6.0,83,0.00,,---,0.00,VWS V14.01,2014-01-07 17:54:00,
2014-01-08 01:59:00,77.3,72.1,29.65,NNE,13,4.0,6.0,84,0.00,,---,0.00,VWS V14.01,2014-01-07 17:59:00,
2014-01-08 02:04:00,77.2,72.0,29.65,NNE,30,3.0,5.0,84,0.00,,---,0.00,VWS V14.01,2014-01-07 18:04:00,
2014-01-08 02:09:00,77.3,72.1,29.65,North,11,2.0,5.0,84,0.00,,---,0.00,VWS V14.01,2014-01-07 18:09:00,
2014-01-08 02:14:00,77.4,72.2,29.65,NNE,13,2.0,5.0,84,0.00,,---,0.00,VWS V14.01,2014-01-07 18:14:00,
2014-01-08 02:19:00,77.4,71.8,29.65,NNE,16,2.0,5.0,83,0.00,,---,0.00,VWS V14.01,2014-01-07 18:19:00,
2014-01-08 02:24:00,77.4,71.8,29.65,NNE,27,1.0,5.0,83,0.00,,---,0.00,VWS V14.01,2014-01-07 18:24:00,
2014-01-08 02:29:00,77.4,71.8,29.64,NNE,27,1.0,5.0,83,0.00,,---,0.00,VWS V14.01,2014-01-07 18:29:00,
2014-01-08 02:34:00,77.3,71.7,29.64,NNE,27,0.0,1.0,83,0.00,,---,0.00,VWS V14.01,2014-01-07 18:34:00,
2014-01-08 02:39:00,77.4,72.2,29.64,NNE,27,0.0,1.0,84,0.00,,---,0.00,VWS V14.01,2014-01-07 18:39:00,
2014-01-08 02:44:00,77.3,72.1,29.64,NNE,27,0.0,1.0,84,0.00,,---,0.00,VWS V14.01,2014-01-07 18:44:00,
2014-01-08 02:49:00,77.2,72.0,29.64,NNE,27,0.0,1.0,84,0.00,,---,0.00,VWS V14.01,2014-01-07 18:49:00,
2014-01-08 02:54:00,77.2,71.6,29.64,NE,36,1.0,1.0,83,0.00,,---,0.00,VWS V14.01,2014-01-07 18:54:00,
2014-01-08 02:59:00,77.2,71.6,29.64,NNE,30,1.0,1.0,83,0.00,,---,0.00,VWS V14.01,2014-01-07 18:59:00,
2014-01-08 03:04:00,77.0,71.8,29.64,NE,37,1.0,1.0,84,0.00,,---,0.00,VWS V14.01,2014-01-07 19:04:00,
2014-01-08 03:09:00,76.8,71.6,29.64,NW,316,0.0,2.0,84,0.00,,---,0.00,VWS V14.01,2014-01-07 19:09:00,
2014-01-08 03:14:00,76.6,71.4,29.64,NNE,33,3.0,3.0,84,0.00,,---,0.00,VWS V14.01,2014-01-07 19:14:00,
2014-01-08 03:19:00,76.4,71.6,29.64,NNE,31,2.0,4.0,85,0.00,,---,0.00,VWS V14.01,2014-01-07 19:19:00,
2014-01-08 03:24:00,76.0,71.9,29.64,NNE,27,3.0,4.0,87,0.00,,---,0.00,VWS V14.01,2014-01-07 19:24:00,
2014-01-08 03:29:00,75.6,71.8,29.64,NNE,22,3.0,5.0,88,0.00,,---,0.00,VWS V14.01,2014-01-07 19:29:00,
2014-01-08 03:34:00,75.5,71.7,29.64,NNE,14,3.0,4.0,88,0.00,,---,0.00,VWS V14.01,2014-01-07 19:34:00,
2014-01-08 03:39:00,75.5,71.4,29.64,NNE,18,4.0,4.0,87,0.00,,---,0.00,VWS V14.01,2014-01-07 19:39:00,
2014-01-08 03:44:00,75.7,71.6,29.64,NNE,20,5.0,5.0,87,0.00,,---,0.00,VWS V14.01,2014-01-07 19:44:00,
2014-01-08 03:49:00,75.9,71.1,29.64,NNW,333,1.0,5.0,85,0.00,,---,0.00,VWS V14.01,2014-01-07 19:49:00,
2014-01-08 03:54:00,76.1,71.3,29.64,North,354,1.0,5.0,85,0.00,,---,0.00,VWS V14.01,2014-01-07 19:54:00,
2014-01-08 03:59:00,76.3,71.1,29.65,WNW,300,1.0,5.0,84,0.00,,---,0.00,VWS V14.01,2014-01-07 19:59:00,
2014-01-08 04:04:00,76.3,71.5,29.64,WNW,302,0.0,1.0,85,0.00,,---,0.00,VWS V14.01,2014-01-07 20:04:00,
2014-01-08 04:09:00,76.2,70.7,29.65,WNW,302,0.0,1.0,83,0.00,,---,0.00,VWS V14.01,2014-01-07 20:09:00,
2014-01-08 04:14:00,76.5,71.0,29.64,WNW,290,0.0,1.0,83,0.00,,---,0.00,VWS V14.01,2014-01-07 20:14:00,
2014-01-08 04:19:00,76.6,70.7,29.65,West,281,2.0,3.0,82,0.00,,---,0.00,VWS V14.01,2014-01-07 20:19:00,
2014-01-08 04:24:00,76.0,70.5,29.65,NW,321,2.0,3.0,83,0.00,,---,0.00,VWS V14.01,2014-01-07 20:24:00,
2014-01-08 04:29:00,75.8,70.3,29.65,West,279,0.0,3.0,83,0.00,,---,0.00,VWS V14.01,2014-01-07 20:29:00,
2014-01-08 04:34:00,76.0,70.5,29.65,West,269,2.0,3.0,83,0.00,,---,0.00,VWS V14.01,2014-01-07 20:34:00,
2014-01-08 04:39:00,76.2,70.3,29.65,WNW,291,0.0,3.0,82,0.00,,---,0.00,VWS V14.01,2014-01-07 20:39:00,
2014-01-08 04:44:00,76.3,70.4,29.65,North,1,2.0,3.0,82,0.00,,---,0.00,VWS V14.01,2014-01-07 20:44:00,
2014-01-08 04:49:00,76.5,70.6,29.65,NNE,19,0.0,3.0,82,0.00,,---,0.00,VWS V14.01,2014-01-07 20:49:00,
2014-01-08 04:54:00,76.7,70.8,29.65,NE,44,0.0,3.0,82,0.00,,---,0.00,VWS V14.01,2014-01-07 20:54:00,
2014-01-08 04:59:00,76.5,70.6,29.66,ENE,70,1.0,3.0,82,0.00,,---,0.00,VWS V14.01,2014-01-07 20:59:00,
2014-01-08 05:04:00,76.4,70.9,29.66,ENE,70,1.0,2.0,83,0.00,,---,0.00,VWS V14.01,2014-01-07 21:04:00,
2014-01-08 05:09:00,76.1,70.9,29.66,ENE,77,1.0,2.0,84,0.00,,---,0.00,VWS V14.01,2014-01-07 21:09:00,
2014-01-08 05:14:00,75.7,70.9,29.66,ENE,77,0.0,2.0,85,0.00,,---,0.00,VWS V14.01,2014-01-07 21:14:00,
2014-01-08 05:19:00,75.8,71.0,29.66,ENE,77,1.0,2.0,85,0.00,,---,0.00,VWS V14.01,2014-01-07 21:19:00,
2014-01-08 05:24:00,75.6,71.1,29.66,ENE,73,0.0,2.0,86,0.00,,---,0.00,VWS V14.01,2014-01-07 21:24:00,
2014-01-08 05:29:00,75.4,71.3,29.66,ENE,74,0.0,2.0,87,0.00,,---,0.00,VWS V14.01,2014-01-07 21:29:00,
2014-01-08 05:34:00,75.5,71.0,29.66,ENE,74,1.0,1.0,86,0.00,,---,0.00,VWS V14.01,2014-01-07 21:34:00,
2014-01-08 05:39:00,75.5,70.7,29.66,SSW,204,0.0,1.0,85,0.00,,---,0.00,VWS V14.01,2014-01-07 21:39:00,
2014-01-08 05:44:00,75.4,70.2,29.66,SSW,204,0.0,1.0,84,0.00,,---,0.00,VWS V14.01,2014-01-07 21:44:00,
2014-01-08 05:49:00,75.5,70.7,29.67,WSW,257,0.0,1.0,85,0.00,,---,0.00,VWS V14.01,2014-01-07 21:49:00,
2014-01-08 05:54:00,75.4,70.2,29.67,WSW,257,0.0,1.0,84,0.00,,---,0.00,VWS V14.01,2014-01-07 21:54:00,
2014-01-08 05:59:00,75.6,70.8,29.67,WSW,257,0.0,1.0,85,0.00,,---,0.00,VWS V14.01,2014-01-07 21:59:00,
2014-01-08 06:04:00,75.8,70.6,29.67,WSW,257,0.0,1.0,84,0.00,,---,0.00,VWS V14.01,2014-01-07 22:04:00,
2014-01-08 06:09:00,75.8,71.0,29.67,WSW,257,0.0,1.0,85,0.00,,---,0.00,VWS V14.01,2014-01-07 22:09:00,
2014-01-08 06:14:00,75.7,70.9,29.67,WSW,257,0.0,1.0,85,0.00,,---,0.00,VWS V14.01,2014-01-07 22:14:00,
2014-01-08 06:19:00,75.7,70.9,29.68,WSW,257,0.0,1.0,85,0.00,,---,0.00,VWS V14.01,2014-01-07 22:19:00,
2014-01-08 06:24:00,75.8,70.6,29.68,WSW,257,0.0,1.0,84,0.00,,---,0.00,VWS V14.01,2014-01-07 22:24:00,
2014-01-08 06:29:00,75.8,71.0,29.68,WSW,257,0.0,1.0,85,0.00,,---,0.00,VWS V14.01,2014-01-07 22:29:00,
2014-01-08 06:34:00,76.0,71.2,29.68,WSW,257,1.0,1.0,85,0.00,,---,0.00,VWS V14.01,2014-01-07 22:34:00,
2014-01-08 06:39:00,76.0,70.8,29.69,West,262,0.0,1.0,84,0.00,,---,0.00,VWS V14.01,2014-01-07 22:39:00,
2014-01-08 06:44:00,76.3,71.1,29.69,West,262,1.0,1.0,84,0.00,,---,0.00,VWS V14.01,2014-01-07 22:44:00,
2014-01-08 06:49:00,76.5,71.0,29.69,West,262,0.0,1.0,83,0.00,,---,0.00,VWS V14.01,2014-01-07 22:49:00,
2014-01-08 06:54:00,76.7,71.2,29.69,West,261,0.0,1.0,83,0.00,,---,0.00,VWS V14.01,2014-01-07 22:54:00,
2014-01-08 06:59:00,77.0,71.8,29.69,West,262,0.0,1.0,84,0.00,,---,0.00,VWS V14.01,2014-01-07 22:59:00,
2014-01-08 07:04:00,77.7,72.1,29.69,West,262,0.0,0.0,83,0.00,,---,0.00,VWS V14.01,2014-01-07 23:04:00,
2014-01-08 07:09:00,78.6,72.3,29.69,West,262,0.0,0.0,81,0.00,,---,0.00,VWS V14.01,2014-01-07 23:09:00,
2014-01-08 07:14:00,78.8,72.1,29.70,West,262,0.0,0.0,80,0.00,,---,0.00,VWS V14.01,2014-01-07 23:14:00,
2014-01-08 07:19:00,79.0,72.3,29.70,West,262,0.0,0.0,80,0.00,,---,0.00,VWS V14.01,2014-01-07 23:19:00,
2014-01-08 07:24:00,79.2,72.5,29.70,West,262,0.0,0.0,80,0.00,,---,0.00,VWS V14.01,2014-01-07 23:24:00,
2014-01-08 07:29:00,79.2,72.1,29.70,West,262,0.0,0.0,79,0.00,,---,0.00,VWS V14.01,2014-01-07 23:29:00,
2014-01-08 07:34:00,78.9,71.8,29.70,ENE,70,1.0,2.0,79,0.00,,---,0.00,VWS V14.01,2014-01-07 23:34:00,
2014-01-08 07:39:00,78.5,71.8,29.70,NNE,30,2.0,4.0,80,0.00,,---,0.00,VWS V14.01,2014-01-07 23:39:00,
2014-01-08 07:44:00,78.5,72.2,29.70,North,357,2.0,5.0,81,0.00,,---,0.00,VWS V14.01,2014-01-07 23:44:00,
2014-01-08 07:49:00,78.8,72.5,29.70,West,280,0.0,5.0,81,0.00,,---,0.00,VWS V14.01,2014-01-07 23:49:00,
2014-01-08 07:54:00,79.1,72.4,29.70,NW,325,2.0,5.0,80,0.00,,---,0.00,VWS V14.01,2014-01-07 23:54:00,
2014-01-08 07:59:00,79.3,72.2,29.70,NNE,32,1.0,7.0,79,0.00,,---,0.00,VWS V14.01,2014-01-07 23:59:00,
2014-01-08 08:04:00,79.6,72.5,29.70,NNE,26,12.0,13.0,79,0.00,,---,0.00,VWS V14.01,2014-01-08 00:04:00,
2014-01-08 08:09:00,79.5,72.8,29.70,North,359,12.0,16.0,80,0.00,,---,0.00,VWS V14.01,2014-01-08 00:09:00,
2014-01-08 08:14:00,79.1,73.1,29.71,NNE,17,13.0,16.0,82,0.00,,---,0.00,VWS V14.01,2014-01-08 00:14:00,
2014-01-08 08:19:00,78.9,72.9,29.71,NNE,22,9.0,16.0,82,0.00,,---,0.00,VWS V14.01,2014-01-08 00:19:00,
2014-01-08 08:24:00,79.0,73.4,29.71,North,11,7.0,16.0,83,0.00,,---,0.00,VWS V14.01,2014-01-08 00:24:00,
2014-01-08 08:29:00,79.0,73.8,29.71,NNE,19,8.0,16.0,84,0.00,,---,0.00,VWS V14.01,2014-01-08 00:29:00,
2014-01-08 08:34:00,78.9,73.7,29.71,NNE,25,10.0,12.0,84,0.00,,---,0.00,VWS V14.01,2014-01-08 00:34:00,
2014-01-08 08:39:00,79.0,73.4,29.71,North,357,5.0,12.0,83,0.00,,---,0.00,VWS V14.01,2014-01-08 00:39:00,
2014-01-08 08:44:00,79.5,73.9,29.71,NNE,16,4.0,12.0,83,0.00,,---,0.00,VWS V14.01,2014-01-08 00:44:00,
2014-01-08 08:49:00,80.0,73.7,29.71,North,351,3.0,12.0,81,0.00,,---,0.00,VWS V14.01,2014-01-08 00:49:00,
2014-01-08 08:54:00,80.6,73.9,29.71,NNE,20,5.0,12.0,80,0.00,,---,0.00,VWS V14.01,2014-01-08 00:54:00,
2014-01-08 08:59:00,80.9,73.4,29.70,NW,321,3.0,12.0,78,0.00,,---,0.00,VWS V14.01,2014-01-08 00:59:00,
2014-01-08 09:04:00,81.1,73.6,29.70,NNE,16,13.0,13.0,78,0.00,,---,0.00,VWS V14.01,2014-01-08 01:04:00,
2014-01-08 09:09:00,81.2,73.7,29.71,NE,41,7.0,14.0,78,0.00,,---,0.00,VWS V14.01,2014-01-08 01:09:00,
2014-01-08 09:14:00,81.6,73.7,29.71,NNW,342,7.0,14.0,77,0.00,,---,0.00,VWS V14.01,2014-01-08 01:14:00,
2014-01-08 09:19:00,81.7,74.2,29.71,NNW,347,8.0,14.0,78,0.00,,---,0.00,VWS V14.01,2014-01-08 01:19:00,
2014-01-08 09:24:00,81.8,74.3,29.71,NNW,330,12.0,16.0,78,0.00,,---,0.00,VWS V14.01,2014-01-08 01:24:00,
2014-01-08 09:29:00,81.8,73.9,29.70,NNE,32,7.0,17.0,77,0.00,,---,0.00,VWS V14.01,2014-01-08 01:29:00,
2014-01-08 09:34:00,81.8,74.3,29.70,North,356,8.0,17.0,78,0.00,,---,0.00,VWS V14.01,2014-01-08 01:34:00,
2014-01-08 09:39:00,81.9,74.4,29.70,NNE,25,18.0,18.0,78,0.00,,---,0.00,VWS V14.01,2014-01-08 01:39:00,
2014-01-08 09:44:00,81.5,73.6,29.70,NE,36,12.0,19.0,77,0.00,,---,0.00,VWS V14.01,2014-01-08 01:44:00,
2014-01-08 09:49:00,81.7,74.2,29.70,ENE,78,6.0,19.0,78,0.00,,---,0.00,VWS V14.01,2014-01-08 01:49:00,
2014-01-08 09:54:00,81.7,74.2,29.70,NNW,347,14.0,19.0,78,0.00,,---,0.00,VWS V14.01,2014-01-08 01:54:00,
2014-01-08 09:59:00,81.8,74.3,29.70,NNE,26,14.0,19.0,78,0.00,,---,0.00,VWS V14.01,2014-01-08 01:59:00,
2014-01-08 10:04:00,81.3,74.2,29.70,NE,56,13.0,20.0,79,0.00,,---,0.00,VWS V14.01,2014-01-08 02:04:00,
2014-01-08 10:09:00,80.4,74.4,29.70,ENE,78,18.0,23.0,82,0.00,,---,0.00,VWS V14.01,2014-01-08 02:09:00,
2014-01-08 10:14:00,79.0,74.8,29.70,NNE,27,12.0,23.0,87,0.00,,---,0.00,VWS V14.01,2014-01-08 02:14:00,
2014-01-08 10:19:00,79.1,75.2,29.70,North,4,10.0,23.0,88,0.00,,---,0.00,VWS V14.01,2014-01-08 02:19:00,
2014-01-08 10:24:00,79.7,75.5,29.69,NE,37,7.0,23.0,87,0.00,,---,0.00,VWS V14.01,2014-01-08 02:24:00,
2014-01-08 10:29:00,80.2,74.9,29.69,North,1,12.0,23.0,84,0.00,,---,0.00,VWS V14.01,2014-01-08 02:29:00,
2014-01-08 10:34:00,80.8,74.8,29.69,North,1,11.0,16.0,82,0.00,,---,0.00,VWS V14.01,2014-01-08 02:34:00,
2014-01-08 10:39:00,81.4,74.6,29.68,NNE,27,9.0,17.0,80,0.00,,---,0.00,VWS V14.01,2014-01-08 02:39:00,
2014-01-08 10:44:00,81.7,74.6,29.68,North,4,9.0,20.0,79,0.00,,---,0.00,VWS V14.01,2014-01-08 02:44:00,
2014-01-08 10:49:00,82.3,74.8,29.68,NW,326,6.0,20.0,78,0.00,,---,0.00,VWS V14.01,2014-01-08 02:49:00,
2014-01-08 10:54:00,82.8,74.9,29.68,NNE,27,14.0,20.0,77,0.00,,---,0.00,VWS V14.01,2014-01-08 02:54:00,
2014-01-08 10:59:00,82.6,74.7,29.67,North,8,7.0,20.0,77,0.00,,---,0.00,VWS V14.01,2014-01-08 02:59:00,
2014-01-08 11:04:00,82.5,74.6,29.67,NNE,25,22.0,22.0,77,0.00,,---,0.00,VWS V14.01,2014-01-08 03:04:00,
2014-01-08 11:09:00,82.8,74.1,29.67,North,352,15.0,27.0,75,0.00,,---,0.00,VWS V14.01,2014-01-08 03:09:00,
2014-01-08 11:14:00,83.0,73.9,29.67,NE,36,9.0,27.0,74,0.00,,---,0.00,VWS V14.01,2014-01-08 03:14:00,
2014-01-08 11:19:00,83.0,74.3,29.67,NNE,23,17.0,27.0,75,0.00,,---,0.00,VWS V14.01,2014-01-08 03:19:00,
2014-01-08 11:24:00,83.1,74.0,29.67,NNE,13,19.0,28.0,74,0.00,,---,0.00,VWS V14.01,2014-01-08 03:24:00,
2014-01-08 11:29:00,82.9,73.4,29.66,ENE,63,19.0,28.0,73,0.00,,---,0.00,VWS V14.01,2014-01-08 03:29:00,
2014-01-08 11:34:00,83.4,73.4,29.66,NNE,13,17.0,20.0,72,0.00,,---,0.00,VWS V14.01,2014-01-08 03:34:00,
2014-01-08 11:39:00,83.4,73.0,29.65,North,360,9.0,24.0,71,0.00,,---,0.00,VWS V14.01,2014-01-08 03:39:00,
2014-01-08 11:44:00,83.3,72.9,29.65,NW,308,8.0,24.0,71,0.00,,---,0.00,VWS V14.01,2014-01-08 03:44:00,
2014-01-08 11:49:00,83.6,73.2,29.64,NNE,26,13.0,24.0,71,0.00,,---,0.00,VWS V14.01,2014-01-08 03:49:00,
2014-01-08 11:54:00,83.9,73.1,29.64,ENE,58,3.0,24.0,70,0.00,,---,0.00,VWS V14.01,2014-01-08 03:54:00,
2014-01-08 11:59:00,84.1,72.8,29.64,NNE,33,7.0,24.0,69,0.00,,---,0.00,VWS V14.01,2014-01-08 03:59:00,
2014-01-08 12:04:00,84.2,72.9,29.63,North,357,26.0,26.0,69,0.00,,---,0.00,VWS V14.01,2014-01-08 04:04:00,
2014-01-08 12:09:00,84.2,73.4,29.63,NNE,27,10.0,26.0,70,0.00,,---,0.00,VWS V14.01,2014-01-08 04:09:00,
2014-01-08 12:13:00,84.5,73.7,29.63,North,9,13.0,26.0,70,0.00,,---,0.00,VWS V14.01,2014-01-08 04:13:00,
2014-01-08 12:18:00,84.7,73.8,29.62,NNW,342,4.0,26.0,70,0.00,,---,0.00,VWS V14.01,2014-01-08 04:18:00,
2014-01-08 12:23:00,84.8,73.9,29.62,North,1,17.0,27.0,70,0.00,,---,0.00,VWS V14.01,2014-01-08 04:23:00,
2014-01-08 12:28:00,84.5,73.7,29.62,North,8,15.0,27.0,70,0.00,,---,0.00,VWS V14.01,2014-01-08 04:28:00,
2014-01-08 12:33:00,84.8,73.5,29.62,NNE,29,15.0,21.0,69,0.00,,---,0.00,VWS V14.01,2014-01-08 04:33:00,
2014-01-08 12:38:00,85.2,74.3,29.62,North,4,10.0,21.0,70,0.00,,---,0.00,VWS V14.01,2014-01-08 04:38:00,
2014-01-08 12:43:00,85.7,73.9,29.62,NE,44,17.0,21.0,68,0.00,,---,0.00,VWS V14.01,2014-01-08 04:43:00,
2014-01-08 12:48:00,85.3,74.0,29.62,NE,39,13.0,21.0,69,0.00,,---,0.00,VWS V14.01,2014-01-08 04:48:00,
2014-01-08 12:53:00,85.4,74.1,29.62,NE,40,15.0,21.0,69,0.00,,---,0.00,VWS V14.01,2014-01-08 04:53:00,
2014-01-08 12:58:00,85.0,73.3,29.62,East,82,13.0,24.0,68,0.00,,---,0.00,VWS V14.01,2014-01-08 04:58:00,
2014-01-08 13:01:00,84.9,73.6,29.61,NNE,29,21.0,21.0,69,0.00,,---,0.00,VWS V14.01,2014-01-08 05:01:00,
2014-01-08 13:06:00,84.7,73.8,29.61,NNE,20,16.0,21.0,70,0.00,,---,0.00,VWS V14.01,2014-01-08 05:06:00,
2014-01-08 13:11:00,84.3,73.5,29.61,North,353,7.0,27.0,70,0.00,,---,0.00,VWS V14.01,2014-01-08 05:11:00,
2014-01-08 13:16:00,84.3,73.9,29.61,NNE,30,15.0,27.0,71,0.00,,---,0.00,VWS V14.01,2014-01-08 05:16:00,
2014-01-08 13:21:00,84.2,73.8,29.61,North,9,13.0,27.0,71,0.00,,---,0.00,VWS V14.01,2014-01-08 05:21:00,
2014-01-08 13:26:00,84.6,74.2,29.60,NW,318,13.0,27.0,71,0.00,,---,0.00,VWS V14.01,2014-01-08 05:26:00,
2014-01-08 13:31:00,84.7,74.3,29.60,ENE,64,9.0,21.0,71,0.00,,---,0.00,VWS V14.01,2014-01-08 05:31:00,
2014-01-08 13:36:00,84.8,73.5,29.60,NNE,14,23.0,25.0,69,0.00,,---,0.00,VWS V14.01,2014-01-08 05:36:00,
2014-01-08 13:41:00,84.7,73.4,29.60,NNE,25,23.0,27.0,69,0.00,,---,0.00,VWS V14.01,2014-01-08 05:41:00,
2014-01-08 13:46:00,84.7,73.8,29.59,West,278,11.0,27.0,70,0.00,,---,0.00,VWS V14.01,2014-01-08 05:46:00,
2014-01-08 13:51:00,84.5,73.7,29.59,North,11,18.0,27.0,70,0.00,,---,0.00,VWS V14.01,2014-01-08 05:51:00,
2014-01-08 13:56:00,84.7,73.8,29.59,NNW,330,7.0,27.0,70,0.00,,---,0.00,VWS V14.01,2014-01-08 05:56:00,
2014-01-08 14:01:00,84.8,73.9,29.59,NNW,333,15.0,17.0,70,0.00,,---,0.00,VWS V14.01,2014-01-08 06:01:00,
2014-01-08 14:06:00,84.3,73.9,29.59,NNE,23,13.0,23.0,71,0.00,,---,0.00,VWS V14.01,2014-01-08 06:06:00,
2014-01-08 14:11:00,84.3,73.9,29.59,ENE,57,13.0,23.0,71,0.00,,---,0.00,VWS V14.01,2014-01-08 06:11:00,
2014-01-08 14:16:00,84.1,73.7,29.59,NNE,18,19.0,23.0,71,0.00,,---,0.00,VWS V14.01,2014-01-08 06:16:00,
2014-01-08 14:21:00,83.9,73.5,29.59,North,11,11.0,23.0,71,0.00,,---,0.00,VWS V14.01,2014-01-08 06:21:00,
2014-01-08 14:26:00,83.5,73.1,29.59,North,1,25.0,29.0,71,0.00,,---,0.00,VWS V14.01,2014-01-08 06:26:00,
2014-01-08 14:31:00,80.3,73.6,29.59,North,360,14.0,15.0,80,0.00,,---,0.00,VWS V14.01,2014-01-08 06:31:00,
2014-01-08 14:36:00,79.3,73.3,29.59,NE,39,18.0,18.0,82,0.00,,---,0.00,VWS V14.01,2014-01-08 06:36:00,
2014-01-08 14:41:00,79.2,73.6,29.59,NNE,20,17.0,23.0,83,0.00,,---,0.00,VWS V14.01,2014-01-08 06:41:00,
2014-01-08 14:46:00,79.5,73.9,29.59,North,353,6.0,23.0,83,0.00,,---,0.00,VWS V14.01,2014-01-08 06:46:00,
2014-01-08 14:51:00,79.8,74.5,29.59,NNE,14,10.0,23.0,84,0.00,,---,0.00,VWS V14.01,2014-01-08 06:51:00,
2014-01-08 14:56:00,80.0,74.7,29.59,NNE,14,11.0,23.0,84,0.00,,---,0.00,VWS V14.01,2014-01-08 06:56:00,
2014-01-08 15:01:00,80.2,74.6,29.59,North,6,13.0,13.0,83,0.00,,---,0.00,VWS V14.01,2014-01-08 07:01:00,
2014-01-08 15:06:00,80.1,74.5,29.59,North,4,20.0,31.0,83,0.00,,---,0.00,VWS V14.01,2014-01-08 07:06:00,
2014-01-08 15:11:00,79.2,73.9,29.59,NNE,27,19.0,31.0,84,0.00,,---,0.00,VWS V14.01,2014-01-08 07:11:00,
2014-01-08 15:16:00,79.0,74.1,29.59,NNE,13,17.0,31.0,85,0.00,,---,0.00,VWS V14.01,2014-01-08 07:16:00,
2014-01-08 15:21:00,78.6,74.4,29.60,NNE,22,22.0,31.0,87,0.00,,---,0.00,VWS V14.01,2014-01-08 07:21:00,
2014-01-08 16:35:00,76.7,74.8,29.61,NNE,23,9.0,14.0,94,0.05,,---,0.09,VWS V14.01,2014-01-08 08:35:00,
2014-01-08 16:40:00,76.8,75.3,29.62,North,359,4.0,14.0,95,0.05,,---,0.09,VWS V14.01,2014-01-08 08:40:00,
2014-01-08 16:45:00,76.8,75.3,29.62,NNE,20,3.0,14.0,95,0.05,,---,0.09,VWS V14.01,2014-01-08 08:45:00,
2014-01-08 16:50:00,76.8,74.9,29.62,NNE,22,5.0,14.0,94,0.05,,---,0.09,VWS V14.01,2014-01-08 08:50:00,
2014-01-08 16:55:00,77.0,75.1,29.62,NNE,22,5.0,14.0,94,0.05,,---,0.09,VWS V14.01,2014-01-08 08:55:00,
2014-01-08 17:00:00,77.0,75.5,29.63,NNE,14,6.0,8.0,95,0.01,,---,0.09,VWS V14.01,2014-01-08 09:00:00,
2014-01-08 17:05:00,76.9,75.1,29.63,NNE,16,6.0,9.0,94,0.01,,---,0.09,VWS V14.01,2014-01-08 09:05:00,
2014-01-08 17:10:00,76.9,75.1,29.63,NNE,25,6.0,9.0,94,0.01,,---,0.09,VWS V14.01,2014-01-08 09:10:00,
2014-01-08 17:15:00,76.9,75.1,29.62,NNE,16,5.0,10.0,94,0.01,,---,0.09,VWS V14.01,2014-01-08 09:15:00,
2014-01-08 17:20:00,76.8,74.9,29.63,NNE,16,6.0,10.0,94,0.01,,---,0.09,VWS V14.01,2014-01-08 09:20:00,
2014-01-08 17:25:00,76.8,74.9,29.63,North,8,5.0,10.0,94,0.01,,---,0.09,VWS V14.01,2014-01-08 09:25:00,
2014-01-08 17:30:00,76.8,74.9,29.63,North,5,8.0,8.0,94,0.00,,---,0.09,VWS V14.01,2014-01-08 09:30:00,
2014-01-08 17:35:00,76.8,74.9,29.63,NNE,16,5.0,9.0,94,0.00,,---,0.09,VWS V14.01,2014-01-08 09:35:00,
2014-01-08 17:40:00,76.8,75.3,29.63,NNE,16,6.0,9.0,95,0.00,,---,0.09,VWS V14.01,2014-01-08 09:40:00,
2014-01-08 17:45:00,76.8,74.9,29.64,NNE,19,9.0,9.0,94,0.00,,---,0.09,VWS V14.01,2014-01-08 09:45:00,
2014-01-08 17:50:00,76.8,74.9,29.64,NNE,22,3.0,10.0,94,0.00,,---,0.09,VWS V14.01,2014-01-08 09:50:00,
2014-01-08 17:55:00,76.8,74.9,29.64,NE,37,4.0,10.0,94,0.00,,---,0.09,VWS V14.01,2014-01-08 09:55:00,
2014-01-08 18:00:00,76.8,74.9,29.64,NE,34,2.0,2.0,94,0.00,,---,0.09,VWS V14.01,2014-01-08 10:00:00,
2014-01-08 18:05:00,77.0,75.1,29.65,NNE,29,5.0,5.0,94,0.00,,---,0.09,VWS V14.01,2014-01-08 10:05:00,
2014-01-08 18:10:00,77.0,74.8,29.65,NNE,19,7.0,7.0,93,0.00,,---,0.09,VWS V14.01,2014-01-08 10:10:00,
2014-01-08 18:15:00,77.0,74.5,29.65,NNE,18,8.0,8.0,92,0.00,,---,0.09,VWS V14.01,2014-01-08 10:15:00,
2014-01-08 18:20:00,77.2,74.7,29.65,NNE,13,7.0,8.0,92,0.00,,---,0.09,VWS V14.01,2014-01-08 10:20:00,
2014-01-08 18:25:00,77.2,74.7,29.66,North,5,5.0,8.0,92,0.00,,---,0.09,VWS V14.01,2014-01-08 10:25:00,
2014-01-08 18:30:00,77.2,74.4,29.66,NNE,19,7.0,7.0,91,0.00,,---,0.09,VWS V14.01,2014-01-08 10:30:00,
2014-01-08 18:35:00,77.3,74.5,29.66,NNE,19,3.0,8.0,91,0.00,,---,0.09,VWS V14.01,2014-01-08 10:35:00,
2014-01-08 18:40:00,77.4,74.6,29.66,NNE,30,9.0,11.0,91,0.00,,---,0.09,VWS V14.01,2014-01-08 10:40:00,
2014-01-08 18:45:00,77.5,74.7,29.67,NNE,22,5.0,11.0,91,0.00,,---,0.09,VWS V14.01,2014-01-08 10:45:00,
2014-01-08 18:50:00,77.5,74.7,29.67,NNE,19,7.0,11.0,91,0.00,,---,0.09,VWS V14.01,2014-01-08 10:50:00,
2014-01-08 18:55:00,77.6,74.8,29.67,NNE,13,6.0,11.0,91,0.00,,---,0.09,VWS V14.01,2014-01-08 10:55:00,
2014-01-08 19:00:00,77.7,74.5,29.67,North,350,6.0,6.0,90,0.00,,---,0.09,VWS V14.01,2014-01-08 11:00:00,
2014-01-08 19:05:00,77.9,74.7,29.67,NNE,26,5.0,9.0,90,0.00,,---,0.09,VWS V14.01,2014-01-08 11:05:00,
2014-01-08 19:10:00,77.9,74.1,29.67,NNE,20,4.0,9.0,88,0.00,,---,0.09,VWS V14.01,2014-01-08 11:10:00,
2014-01-08 19:15:00,77.9,74.1,29.67,NNE,22,6.0,9.0,88,0.00,,---,0.09,VWS V14.01,2014-01-08 11:15:00,
2014-01-08 19:20:00,77.9,74.1,29.67,NNE,17,7.0,9.0,88,0.00,,---,0.09,VWS V14.01,2014-01-08 11:20:00,
2014-01-08 19:25:00,77.9,74.1,29.68,NNE,18,4.0,9.0,88,0.00,,---,0.09,VWS V14.01,2014-01-08 11:25:00,
2014-01-08 19:30:00,77.9,73.7,29.68,NNE,23,5.0,6.0,87,0.00,,---,0.09,VWS V14.01,2014-01-08 11:30:00,
2014-01-08 19:35:00,77.9,73.7,29.68,North,9,6.0,7.0,87,0.00,,---,0.09,VWS V14.01,2014-01-08 11:35:00,
2014-01-08 19:40:00,77.9,73.4,29.68,NNE,17,6.0,7.0,86,0.00,,---,0.09,VWS V14.01,2014-01-08 11:40:00,
2014-01-08 19:45:00,78.1,73.6,29.68,NNE,13,2.0,9.0,86,0.00,,---,0.09,VWS V14.01,2014-01-08 11:45:00,
2014-01-08 19:50:00,78.2,73.7,29.68,North,11,6.0,9.0,86,0.00,,---,0.09,VWS V14.01,2014-01-08 11:50:00,
2014-01-08 19:55:00,78.2,73.7,29.69,NNE,29,4.0,9.0,86,0.00,,---,0.09,VWS V14.01,2014-01-08 11:55:00,
2014-01-08 20:00:00,78.0,73.5,29.69,NE,39,4.0,4.0,86,0.00,,---,0.09,VWS V14.01,2014-01-08 12:00:00,
2014-01-08 20:05:00,77.8,73.6,29.69,NNE,20,5.0,8.0,87,0.01,,---,0.10,VWS V14.01,2014-01-08 12:05:00,
2014-01-08 20:10:00,77.7,73.5,29.69,North,356,5.0,8.0,87,0.01,,---,0.10,VWS V14.01,2014-01-08 12:10:00,
2014-01-08 20:15:00,77.5,73.3,29.69,NNE,25,5.0,8.0,87,0.01,,---,0.10,VWS V14.01,2014-01-08 12:15:00,
2014-01-08 20:20:00,77.4,73.6,29.69,NNE,16,6.0,8.0,88,0.01,,---,0.10,VWS V14.01,2014-01-08 12:20:00,
2014-01-08 20:25:00,77.2,73.4,29.69,NNE,16,5.0,8.0,88,0.01,,---,0.10,VWS V14.01,2014-01-08 12:25:00,
2014-01-08 20:30:00,77.1,73.6,29.69,NNE,13,6.0,6.0,89,0.01,,---,0.10,VWS V14.01,2014-01-08 12:30:00,
2014-01-08 20:35:00,77.0,73.5,29.69,NNE,16,6.0,10.0,89,0.01,,---,0.10,VWS V14.01,2014-01-08 12:35:00,
2014-01-08 20:40:00,76.8,73.7,29.69,NE,53,4.0,10.0,90,0.02,,---,0.11,VWS V14.01,2014-01-08 12:40:00,
2014-01-08 20:45:00,76.6,73.8,29.69,NE,39,3.0,10.0,91,0.04,,---,0.13,VWS V14.01,2014-01-08 12:45:00,
2014-01-08 20:50:00,76.4,73.9,29.69,NNE,33,6.0,10.0,92,0.04,,---,0.13,VWS V14.01,2014-01-08 12:50:00,
2014-01-08 20:55:00,76.3,73.8,29.69,NE,41,7.0,10.0,92,0.04,,---,0.13,VWS V14.01,2014-01-08 12:55:00,